User: anonymous   Login
Location: Newark
(11.2914°S, 14.4718°E)
Time: 22:44:21
(UTC+00:00)
Language:

Vanguard 2 Rocket - Orbit

View from above orbital plane
View from above orbital plane
View from above satellite
View from above satellite

Ground track
Ground track

The orbit data is extracted from the following two-line orbital elements,

1    12U 59001B   19263.14036825  .00000198  00000-0  12268-3 0  9998
2    12  32.8970 220.2074 1666696  89.5263 289.5202 11.44301196491477
Epoch (UTC): 20 September 2019 03:22:07
Eccentricity: 0.1666696
inclination: 32.8970°
perigee height: 554 km
apogee height: 3327 km
right ascension of ascending node: 220.2074°
argument of perigee: 89.5263°
revolutions per day: 11.44301196
mean anomaly at epoch: 289.5202°
orbit number at epoch: 49147

The dashed part of the orbit path shows where the satellite is in the earth's shadow,  

DLR